Weather in Kharovsk

Russia / Vologda Oblast     59°57′02″N   40°12′22″E
temp.,
°C
wind,
m/s
gust,
m/s
humid.,
%
clouds,
%
prec.,
mm/h
press.,
hPa
HPBL,
m
11 april, sun
sun1100:00+3s61779100 0.0 1019697
03:00+2sw51384100 0.0 1020711
06:00+2wsw3109276 0.1 1022582
09:00+3wsw47775 0.1 1025717
12:00+5wsw45665 0.0 10271000
15:00+6wsw46615 0.0 10281263
18:00+5wsw37730 0.0 1030250
21:00−1sw23936 0.0 103346
12 april, mon
mon1200:00−2ssw119560 0.0 103518
03:00−2s11955 0.0 103618
06:000sse269465 0.0 1036111
09:00+4sse3882100 0.0 1036302
12:00+7sse4108298 0.0 1035422
15:00+11s487621 0.0 1034782
18:00+10s38836 0.0 1033298
21:00+6sse311915 0.0 1032241
13 april, tue
tue1300:00+6sse4139199 0.0 1031388
03:00+6sse41394100 0.3 1029493
06:00+5sse41196100 0.0 1027424
09:00+7s41094100 0.0 1026456
12:00+10s41085100 0.0 1025600
15:00+14ssw4975100 0.0 1024905
18:00+12ssw3782100 0.0 1023250
21:00+10s299039 0.0 1023191
14 april, wed
wed1400:00+9ssw2892100 0.0 1022194
03:00+7s2694100 0.0 1022128
06:00+8s2793100 0.0 1021155
09:00+10ssw368395 0.6 1020285
12:00+12ssw387526 0.0 1019438
15:00+15wnw3669100 0.1 1019838
18:00+6nnw3685100 0.0 1021349
21:00+4n3792100 1.3 1022363
15 april, thu
thu1500:00+3n4892100 1.4 1023453
03:00+2nne3896100 1.8 1023408
06:00+1nne2699100 2.0 1023191
09:00+2nne2599100 3.3 1023200
12:00+3nne2497100 1.4 1024301
15:00+6nne2474100 1.8 1023982
18:00+5n3775100 0.1 1024492
21:00+2nnw298637 0.1 1026216